Location: El Águila
(10.4167°N, 66.7167°W)
Time: 05:53:20
(UTC+00:00)

Cosmos 1470 - Pass Details

Date: 02 October 2022
Orbit: 516 x 533 km, 82.5° (Epoch: 26 November)

Event Time Altitude Azimuth Distance (km) Brightness Sun altitude
Rises 23:23:45 0° 180° (S) 2,651 6.3 -17.3°
Reaches altitude 10° 23:25:54 10° 178° (S) 1,759 5.4 -17.9°
Maximum altitude 23:29:44 71° 94° (E) 555 2.5 -18.8°
Drops below altitude 10° 23:33:33 10° 10° (N) 1,747 5.3 -19.7°
Sets 23:35:41 0° 8° (N) 2,631 6.2 -20.3°
